DLH1509 LPPR-EDDF

Flight info

Callsign DLH1509
Flight time N/A
Altitude 34000
Route TURON P600 ASDEB DCT LOTEE DCT AZFIC UN741 MOKOR UN873 OBATO UM163 TSU UN858 OQQAL DCT RANUX/N0453F350 DCT VALEK DCT LIPNI DCT LIMGO Z111 TUTOV/N0403F230 Z111 RAMOB IMCOM1A
Aircraft A321/M-SDE3FGHIRWY/LB1

Departure

Time 2026-05-06 23:02
Airport Francisco de Sá Carneiro Airport (LPPR)

Arrival

Time N/A
Airport Frankfurt Main Airport (EDDF)
Time Latitude Longitude Altitude Speed Heading
2026-05-06 22:30 41.23509 -8.67290 235 ft 0 kts 114°
2026-05-06 22:55 41.23509 -8.67291 235 ft 1 kts 114°
2026-05-06 22:55 41.23520 -8.67319 240 ft 4 kts 124°
2026-05-06 22:55 41.23537 -8.67346 238 ft 4 kts 147°
2026-05-06 22:55 41.23558 -8.67356 240 ft 4 kts 198°
2026-05-06 22:56 41.23564 -8.67353 236 ft 0 kts 211°
2026-05-06 22:58 41.23563 -8.67354 236 ft 1 kts 211°
2026-05-06 22:58 41.23534 -8.67378 237 ft 9 kts 211°
2026-05-06 22:59 41.23456 -8.67378 238 ft 12 kts 168°
2026-05-06 22:59 41.23368 -8.67365 235 ft 14 kts 195°
2026-05-06 22:59 41.23328 -8.67463 238 ft 9 kts 259°
2026-05-06 22:59 41.23312 -8.67574 235 ft 9 kts 258°
2026-05-06 23:00 41.23310 -8.67583 235 ft 0 kts 258°
2026-05-06 23:00 41.23308 -8.67597 235 ft 5 kts 258°
2026-05-06 23:00 41.23303 -8.67630 239 ft 1 kts 258°
2026-05-06 23:01 41.23298 -8.67669 238 ft 8 kts 259°
2026-05-06 23:01 41.23336 -8.67737 239 ft 13 kts 343°
2026-05-06 23:01 41.23366 -8.67745 237 ft 7 kts 349°
2026-05-06 23:01 41.23672 -8.67825 235 ft 81 kts 349°
2026-05-06 23:02 41.24442 -8.68027 237 ft 142 kts 348°
2026-05-06 23:02 41.25567 -8.68314 336 ft 179 kts 349°
2026-05-06 23:02 41.26780 -8.68620 975 ft 177 kts 347°
2026-05-06 23:02 41.27982 -8.68928 1718 ft 176 kts 348°
2026-05-06 23:03 41.29237 -8.69258 2048 ft 193 kts 348°
2026-05-06 23:03 41.30612 -8.69632 2316 ft 210 kts 348°
2026-05-06 23:03 41.32132 -8.70039 2494 ft 236 kts 348°
2026-05-06 23:03 41.33791 -8.70470 3029 ft 245 kts 349°
2026-05-06 23:04 41.35479 -8.70909 3746 ft 250 kts 349°
2026-05-06 23:04 41.37198 -8.71365 4441 ft 255 kts 348°
2026-05-06 23:04 41.38933 -8.71824 5249 ft 253 kts 349°
2026-05-06 23:04 41.40680 -8.72276 5930 ft 258 kts 348°
2026-05-06 23:05 41.42473 -8.72561 6599 ft 262 kts 360°
2026-05-06 23:05 41.44297 -8.72279 7270 ft 266 kts 10°
2026-05-06 23:05 41.46126 -8.71806 7934 ft 269 kts
2026-05-06 23:05 41.47974 -8.71338 8600 ft 273 kts
2026-05-06 23:06 41.49850 -8.70867 9261 ft 276 kts
2026-05-06 23:06 41.51748 -8.70389 9928 ft 279 kts
2026-05-06 23:06 41.53691 -8.69903 10248 ft 294 kts
2026-05-06 23:06 41.55778 -8.69384 10387 ft 315 kts
2026-05-06 23:07 41.57999 -8.68825 10517 ft 334 kts 10°
2026-05-06 23:07 41.60345 -8.68231 10645 ft 352 kts 10°
2026-05-06 23:07 41.62809 -8.67604 10840 ft 367 kts 10°
2026-05-06 23:07 41.65337 -8.66956 11283 ft 372 kts 10°
2026-05-06 23:08 41.67892 -8.66301 11795 ft 375 kts 10°
2026-05-06 23:08 41.70471 -8.65644 12339 ft 378 kts 10°
2026-05-06 23:08 41.73064 -8.64985 12874 ft 382 kts 10°
2026-05-06 23:08 41.75685 -8.64318 13414 ft 385 kts 10°
2026-05-06 23:09 41.78329 -8.63645 13914 ft 388 kts 10°
2026-05-06 23:09 41.80985 -8.62967 14383 ft 391 kts 10°
2026-05-06 23:09 41.83663 -8.62283 14849 ft 393 kts 10°
2026-05-06 23:09 41.86358 -8.61594 15324 ft 395 kts 10°
2026-05-06 23:10 41.89070 -8.60901 15814 ft 398 kts
2026-05-06 23:10 41.91797 -8.60206 16265 ft 400 kts
2026-05-06 23:10 41.94540 -8.59504 16715 ft 402 kts
2026-05-06 23:10 41.97292 -8.58796 17174 ft 404 kts
2026-05-06 23:11 42.00065 -8.58079 17630 ft 407 kts
2026-05-06 23:11 42.02853 -8.57356 18080 ft 409 kts
2026-05-06 23:11 42.05648 -8.56634 18487 ft 411 kts
2026-05-06 23:11 42.08473 -8.55962 18855 ft 413 kts
2026-05-06 23:12 42.11330 -8.55432 19231 ft 415 kts
2026-05-06 23:12 42.14210 -8.54994 19600 ft 417 kts
2026-05-06 23:12 42.17141 -8.54593 19990 ft 420 kts
2026-05-06 23:12 42.20016 -8.54203 20361 ft 422 kts
2026-05-06 23:13 42.22946 -8.53783 20727 ft 424 kts
2026-05-06 23:13 42.25891 -8.53334 21092 ft 427 kts
2026-05-06 23:13 42.28839 -8.52864 21455 ft 429 kts
2026-05-06 23:13 42.31811 -8.52382 21822 ft 431 kts
2026-05-06 23:14 42.34796 -8.51895 22191 ft 433 kts
2026-05-06 23:14 42.37795 -8.51410 22550 ft 435 kts
2026-05-06 23:14 42.40843 -8.50921 22924 ft 437 kts
2026-05-06 23:14 42.43874 -8.50435 23270 ft 439 kts
2026-05-06 23:15 42.46915 -8.49907 23587 ft 443 kts
2026-05-06 23:15 42.49871 -8.48862 23873 ft 448 kts 17°
2026-05-06 23:15 42.52733 -8.47116 24174 ft 454 kts 26°
2026-05-06 23:15 42.55397 -8.44682 24469 ft 460 kts 36°
2026-05-06 23:16 42.57826 -8.41830 24738 ft 462 kts 38°
2026-05-06 23:16 42.60254 -8.38951 25004 ft 464 kts 38°
2026-05-06 23:16 42.62657 -8.36106 25264 ft 465 kts 38°
2026-05-06 23:16 42.65102 -8.33213 25523 ft 467 kts 38°
2026-05-06 23:17 42.67582 -8.30274 25755 ft 468 kts 38°
2026-05-06 23:17 42.70040 -8.27356 25981 ft 470 kts 38°
2026-05-06 23:17 42.72504 -8.24426 26218 ft 471 kts 38°
2026-05-06 23:17 42.74967 -8.21494 26529 ft 470 kts 38°
2026-05-06 23:18 42.77389 -8.18605 26838 ft 469 kts 38°
2026-05-06 23:18 42.79868 -8.15645 27148 ft 468 kts 39°
2026-05-06 23:18 42.82314 -8.12716 27456 ft 468 kts 39°
2026-05-06 23:18 42.84756 -8.09787 27757 ft 467 kts 39°
2026-05-06 23:19 42.87198 -8.06861 28057 ft 467 kts 39°
2026-05-06 23:19 42.89632 -8.03947 28363 ft 466 kts 38°
2026-05-06 23:19 42.92072 -8.01025 28658 ft 466 kts 38°
2026-05-06 23:19 42.94506 -7.98107 28951 ft 466 kts 39°
2026-05-06 23:20 42.96941 -7.95183 29258 ft 466 kts 39°
2026-05-06 23:20 42.99365 -7.92265 29547 ft 465 kts 39°
2026-05-06 23:20 43.01792 -7.89337 29849 ft 465 kts 39°
2026-05-06 23:20 43.04215 -7.86407 30125 ft 465 kts 39°
2026-05-06 23:21 43.06637 -7.83477 30360 ft 464 kts 39°
2026-05-06 23:21 43.09059 -7.80550 30602 ft 464 kts 39°
2026-05-06 23:21 43.11475 -7.77632 30847 ft 464 kts 38°
2026-05-06 23:21 43.13892 -7.74703 31076 ft 464 kts 39°
2026-05-06 23:22 43.16305 -7.71767 31307 ft 464 kts 39°
2026-05-06 23:22 43.18717 -7.68831 31547 ft 463 kts 39°
2026-05-06 23:22 43.21122 -7.65907 31773 ft 463 kts 39°
2026-05-06 23:22 43.23534 -7.62974 32003 ft 463 kts 39°
2026-05-06 23:23 43.25944 -7.60040 32227 ft 463 kts 39°
2026-05-06 23:23 43.28351 -7.57102 32442 ft 463 kts 39°
2026-05-06 23:23 43.30749 -7.54171 32675 ft 462 kts 39°
2026-05-06 23:23 43.33152 -7.51235 32902 ft 462 kts 39°
2026-05-06 23:24 43.35555 -7.48296 33118 ft 462 kts 39°
2026-05-06 23:24 43.37954 -7.45354 33339 ft 462 kts 39°
2026-05-06 23:24 43.40351 -7.42411 33559 ft 462 kts 39°
2026-05-06 23:24 43.42741 -7.39475 33767 ft 461 kts 39°
2026-05-06 23:25 43.45136 -7.36532 33959 ft 462 kts 39°
2026-05-06 23:25 43.49937 -7.30631 34007 ft 463 kts 39°
2026-05-06 23:26 43.54741 -7.24701 34010 ft 463 kts 39°
2026-05-06 23:26 43.59531 -7.18771 34008 ft 463 kts 39°
2026-05-06 23:27 43.64325 -7.12828 34006 ft 463 kts 39°
2026-05-06 23:27 43.69109 -7.06887 34016 ft 463 kts 39°
2026-05-06 23:28 43.73906 -7.00928 34021 ft 463 kts 40°
2026-05-06 23:28 43.77885 -6.95961 34022 ft 464 kts 40°
2026-05-06 23:29 43.82663 -6.89969 34025 ft 464 kts 40°
2026-05-06 23:29 43.87449 -6.83965 34033 ft 464 kts 40°
2026-05-06 23:30 43.92227 -6.77964 34034 ft 464 kts 40°
2026-05-06 23:30 43.97012 -6.71945 34033 ft 464 kts 40°
2026-05-06 23:31 44.01790 -6.65918 34034 ft 464 kts 40°
2026-05-06 23:31 44.06556 -6.59884 34031 ft 464 kts 41°
2026-05-06 23:32 44.11318 -6.53843 34033 ft 464 kts 41°
2026-05-06 23:32 44.16086 -6.47784 34036 ft 464 kts 41°
2026-05-06 23:33 44.20854 -6.41715 34036 ft 464 kts 41°
2026-05-06 23:33 44.25615 -6.35648 34040 ft 464 kts 41°
2026-05-06 23:34 44.30372 -6.29555 34038 ft 464 kts 41°
2026-05-06 23:34 44.35124 -6.23468 34039 ft 464 kts 41°
2026-05-06 23:35 44.39882 -6.17353 34040 ft 464 kts 41°
2026-05-06 23:35 44.44637 -6.11239 34042 ft 465 kts 41°
2026-05-06 23:36 44.49390 -6.05101 34044 ft 465 kts 41°
2026-05-06 23:36 44.54136 -5.98956 34054 ft 464 kts 41°
2026-05-06 23:37 44.58869 -5.92803 34046 ft 464 kts 42°
2026-05-06 23:37 44.63609 -5.86639 34050 ft 464 kts 42°
2026-05-06 23:38 44.68332 -5.80439 34053 ft 464 kts 43°
2026-05-06 23:38 44.72960 -5.74110 34059 ft 464 kts 44°
2026-05-06 23:39 44.77558 -5.67724 34057 ft 464 kts 44°
2026-05-06 23:39 44.82155 -5.61364 34059 ft 463 kts 43°
2026-05-06 23:40 44.86766 -5.55024 34023 ft 463 kts 44°
2026-05-06 23:40 44.91371 -5.48677 34026 ft 464 kts 44°
2026-05-06 23:41 44.95987 -5.42286 34032 ft 465 kts 44°
2026-05-06 23:41 45.00630 -5.35838 34046 ft 465 kts 44°
2026-05-06 23:42 45.05215 -5.29455 34049 ft 466 kts 44°
2026-05-06 23:42 45.09861 -5.22985 34056 ft 466 kts 44°
2026-05-06 23:43 45.14454 -5.16595 34065 ft 466 kts 44°
2026-05-06 23:43 45.19089 -5.10094 34061 ft 466 kts 44°
2026-05-06 23:44 45.23656 -5.03655 34062 ft 466 kts 44°
2026-05-06 23:44 45.28285 -4.97138 34060 ft 466 kts 44°
2026-05-06 23:45 45.32885 -4.90651 34066 ft 466 kts 44°
2026-05-06 23:45 45.37478 -4.84161 34066 ft 466 kts 44°
2026-05-06 23:46 45.42037 -4.77695 34068 ft 466 kts 44°
2026-05-06 23:46 45.46623 -4.71179 34067 ft 466 kts 44°
2026-05-06 23:47 45.51231 -4.64614 34071 ft 465 kts 44°
2026-05-06 23:47 45.55780 -4.58122 34074 ft 466 kts 44°
2026-05-06 23:48 45.60378 -4.51531 34069 ft 466 kts 44°
2026-05-06 23:48 45.64943 -4.44976 34071 ft 466 kts 44°
2026-05-06 23:49 45.69510 -4.38403 34071 ft 465 kts 44°
2026-05-06 23:49 45.74073 -4.31839 34068 ft 465 kts 44°
2026-05-06 23:50 45.78633 -4.25248 34070 ft 465 kts 44°
2026-05-06 23:50 45.85451 -4.15346 34071 ft 465 kts 44°
2026-05-06 23:51 45.89998 -4.08735 34069 ft 465 kts 44°
2026-05-06 23:51 45.94531 -4.02123 34067 ft 465 kts 44°
2026-05-06 23:52 45.99066 -3.95496 34073 ft 465 kts 44°
2026-05-06 23:52 46.03587 -3.88861 34066 ft 465 kts 44°
2026-05-06 23:53 46.08111 -3.82211 34064 ft 464 kts 45°
2026-05-06 23:53 46.12621 -3.75557 34061 ft 464 kts 45°
2026-05-06 23:54 46.17137 -3.68890 34058 ft 464 kts 45°
2026-05-06 23:54 46.21642 -3.62222 34059 ft 464 kts 45°
2026-05-06 23:55 46.26144 -3.55530 34055 ft 464 kts 45°
2026-05-06 23:55 46.30647 -3.48830 34054 ft 464 kts 45°
2026-05-06 23:56 46.35145 -3.42131 34056 ft 464 kts 45°
2026-05-06 23:56 46.39648 -3.35416 34057 ft 464 kts 45°
2026-05-06 23:57 46.44132 -3.28688 34052 ft 464 kts 45°
2026-05-06 23:57 46.48609 -3.21953 34052 ft 464 kts 45°
2026-05-06 23:58 46.53090 -3.15199 34047 ft 464 kts 45°
2026-05-06 23:58 46.57347 -3.08169 34048 ft 465 kts 55°
2026-05-06 23:59 46.60658 -3.00082 34053 ft 465 kts 59°
2026-05-06 23:59 46.63917 -2.91949 34051 ft 465 kts 59°
2026-05-07 00:00 46.67178 -2.83821 34053 ft 465 kts 59°
2026-05-07 00:00 46.69883 -2.77063 34044 ft 465 kts 59°
2026-05-07 00:01 46.73678 -2.67530 34050 ft 466 kts 59°
2026-05-07 00:01 46.76923 -2.59349 34050 ft 466 kts 59°
2026-05-07 00:02 46.80162 -2.51160 34042 ft 465 kts 59°
2026-05-07 00:02 46.83388 -2.42977 34043 ft 465 kts 59°
2026-05-07 00:03 46.86611 -2.34779 34038 ft 465 kts 59°